Regional Weather Roundup
Issued by NWS

Home | Current Version | Previous Version | Graphics & Text | Print | Product List | Glossary On
Versions: 1 2 3 4 5 6 7 8 9 10 11 12 13 14 15 16 17 18 19 20 21 22 23 24 25 26 27 28 29 30 31 32 33 34 35 36 37 38 39 40 41 42 43 44 45 46 47 48 49 50
000
ASUS43 KDTX 031010
RWRMI
MICHIGAN HOURLY REGIONAL WEATHER ROUNDUP
NATIONAL WEATHER SERVICE DETROIT/PONTIAC MI
600 AM EDT MON AUG 03 2015

NOTE: "FAIR" INDICATES FEW OR NO CLOUDS BELOW 12,000 FEET WITH NO
SIGNIFICANT WEATHER AND/OR OBSTRUCTION TO VISIBILITY.

MIZ047>049-052>055-059>063-066>070-074>076-081>083-031100-
SOUTHEAST LOWER MICHIGAN

CITY           SKY/WX    TMP DP  RH WIND       PRES   REMARKS
ADRIAN         CLOUDY    63  61  93 SW12      29.79R
ALMA           PTCLDY    59  59  99 SW3       29.74S FOG
ANN ARBOR      CLOUDY    63  62  97 SW8       29.77R FOG
BAD AXE        CLOUDY    62  61  96 SW7       29.72R
DETROIT CITY   CLOUDY    65  61  87 W10       29.75S
DETROIT        CLOUDY    64  62  93 SW9       29.77S
FLINT          CLOUDY    66  62  87 W7        29.75R
GROSSE ILE     CLOUDY    64  63  94 SW9       29.76R
HILLSDALE      CLOUDY    63  63 100 SW7       29.79R
HOWELL         CLOUDY    63  62  96 SW6       29.76R

CITY           SKY/WX    TMP DP  RH WIND       PRES   REMARKS
JACKSON        CLOUDY    64  61  90 SW8       29.77R
LAMBERTVILLE   CLOUDY    64  61  88 W6        29.78R
LANSING        CLOUDY    64  63  96 W7        29.76
LAPEER         NOT AVBL
MASON          CLOUDY    61  60  96 CALM      29.76R
MONROE         CLOUDY    64  62  94 W6        29.76R
MT. CLEMENS    CLOUDY    64  62  92 SW10G17   29.73R
PONTIAC        DRIZZLE   63  62  97 SW9       29.75R
PORT HURON     CLOUDY    63  61  94 SW6       29.73S
TRI CITIES     PTCLDY    62  59  90 SW6       29.74R
YPSILANTI      CLOUDY    67  62  84 SW9       29.77R
$$
MIZ043>046-050>051-056>058-064>065-071>073-077>080-031100-
SOUTHWEST LOWER MICHIGAN

CITY           SKY/WX    TMP DP  RH WIND       PRES   REMARKS
BATTLE CREEK   MOCLDY    63  61  93 SW5       29.76S
BENTON HARBOR  CLEAR     63  62  97 CALM      29.76R FOG
BIG RAPIDS     FOG       56  56  97 CALM      29.74S VSB 1
COLDWATER      CLOUDY    63  62  96 CALM      29.78R
HOLLAND        FOG       60  58  92 CALM      29.76R VSB 1/4
GRAND RAPIDS   PTCLDY    64  63  96 W6        29.75S
KALAMAZOO      MOCLDY    65  62  90 SW3       29.76F
MARSHALL       MOCLDY    61  60  95 CALM      29.75S
MUSKEGON       MOCLDY    63  59  87 CALM      29.75R
$$
MIZ016>042-031100-
NORTHERN LOWER MICHIGAN

CITY           SKY/WX    TMP DP  RH WIND       PRES   REMARKS
ALPENA         CLEAR     60  58  92 SW6       29.68R
BEAVER ISLAND  FOG       55  54  98 CALM      29.68S VSB<1/4
BELLAIRE       CLOUDY    62  61  96 S6        29.69R
CADILLAC       FOG       59  59 100 SW6       29.73R VSB 3/4
CHARLEVOIX     CLEAR     63  62  97 W8        29.70S
FRANKFORT      SUNNY     54  54 100 CALM      29.70S
GAYLORD        CLOUDY    62  62 100 W9        29.70R
GRAYLING       FOG       59  58  98 SW6       29.72R VSB 1
HARBOR SPRINGS CLOUDY    63  62  96 W5        29.67R
HOUGHTON LAKE  FOG       59  58  96 W5        29.73R VSB 1
MANISTEE       CLOUDY    55  52  88 E3        29.73R VSB 1/2
OSCODA         CLEAR     57  56  99 SW5       29.68S
PELLSTON       FOG       51  51 100 CALM      29.67R VSB 1/2
TRAVERSE CITY  CLOUDY    63  62  97 CALM      29.69R FOG
$$
MIZ007>008-015-031100-
EASTERN UPPER MICHIGAN

CITY           SKY/WX    TMP DP  RH WIND       PRES   REMARKS
KINROSS        CLOUDY    52  52 100 SW6       29.64S VSB 1/2
MACKINAC ISLAN   N/A     61  60  97 W8        29.65S
NEWBERRY       PTCLDY    53  52  99 W8        29.66R
S. S. MARIE    CLOUDY    59  56  89 W8        29.64R
$$
MIZ004>006-011>014-085-031100-
CENTRAL UPPER MICHIGAN

CITY           SKY/WX    TMP DP  RH WIND       PRES   REMARKS
MANISTIQUE     CLEAR     54  50  87 NW6       29.67S
ESCANABA       MOCLDY    55  52  88 W8        29.69R
MENOMINEE      CLEAR     55  52  88 W3        29.72R
SAWYER-GWINN   CLOUDY    55  51  86 W7        29.71S
$$
MIZ001>003-009>011-084-031100-
WESTERN UPPER MICHIGAN

CITY           SKY/WX    TMP DP  RH WIND       PRES   REMARKS
IRON MOUNTAIN  CLOUDY    59  50  72 W6        29.72S
HOUGHTON       CLOUDY    59  50  72 W12       29.70R
COPPER HARBOR    N/A     61  51  70 N15       29.67R
IRONWOOD       PTCLDY    55  50  82 SW5       29.74R
$$

ABBREVIATIONS USED IN REMARKS
   TC - TEMPERATURE IN CELSIUS
  WCI - WIND CHILL INDEX
   HX - HEAT INDEX
  VSB - VISIBILITY



USA.gov is the U.S. government's official web portal to all federal, state and local government web resources and services.